contact:dominique.lefevre@mio.osupytheas.fr, maurice.libes@osupytheas.fr, didier.mallarino@osupytheas.fr
Project:EMSO http://www.emso-fr.org/EMSO-France
Depth: 2436.0 m
Title:EMSO Ligure Ouest : Data MII capteur MICROCAT
DateTime_Computer,Latitude,Longitude,Temperature,Conductivity,Pressure,DateTime_Instrument
DateTime_Computer,Latitude,Longitude,degC,S m-1,dbar,DateTime_Instrument
2023-08-15T00:00:11Z,42.805,6.029,13.3048,4.60140,2470.646,2023-8-15T02:02:30Z
2023-08-15T00:03:14Z,42.805,6.029,13.3045,4.60151,2470.707,2023-8-15T02:05:33Z
2023-08-15T00:06:17Z,42.805,6.029,13.3039,4.60114,2470.693,2023-8-15T02:08:36Z
2023-08-15T00:09:20Z,42.805,6.029,13.3036,4.60137,2470.73,2023-8-15T02:11:39Z
2023-08-15T00:12:23Z,42.805,6.029,13.3039,4.60137,2470.693,2023-8-15T02:14:42Z
2023-08-15T00:15:26Z,42.805,6.029,13.3053,4.60130,2470.73,2023-8-15T02:17:45Z
2023-08-15T00:18:29Z,42.805,6.029,13.3044,4.60138,2470.707,2023-8-15T02:20:48Z
2023-08-15T00:21:32Z,42.805,6.029,13.3042,4.60142,2470.693,2023-8-15T02:23:51Z
2023-08-15T00:24:35Z,42.805,6.029,13.3045,4.60144,2470.693,2023-8-15T02:26:55Z
2023-08-15T00:27:38Z,42.805,6.029,13.3051,4.60131,2470.693,2023-8-15T02:29:58Z
2023-08-15T00:30:41Z,42.805,6.029,13.3036,4.60130,2470.707,2023-8-15T02:33:01Z
2023-08-15T00:33:45Z,42.805,6.029,13.3046,4.60140,2470.73,2023-8-15T02:36:04Z
2023-08-15T00:36:48Z,42.805,6.029,13.3043,4.60142,2470.67,2023-8-15T02:39:07Z
2023-08-15T00:39:51Z,42.805,6.029,13.3044,4.60155,2470.646,2023-8-15T02:42:10Z
2023-08-15T00:42:54Z,42.805,6.029,13.3042,4.60149,2470.693,2023-8-15T02:45:13Z
2023-08-15T00:45:57Z,42.805,6.029,13.3049,4.60142,2470.707,2023-8-15T02:48:16Z
2023-08-15T00:49:00Z,42.805,6.029,13.3039,4.60140,2470.684,2023-8-15T02:51:19Z
2023-08-15T00:52:03Z,42.805,6.029,13.3051,4.60144,2470.684,2023-8-15T02:54:22Z
2023-08-15T00:55:06Z,42.805,6.029,13.3053,4.60160,2470.67,2023-8-15T02:57:25Z
2023-08-15T00:58:09Z,42.805,6.029,13.3044,4.60135,2470.684,2023-8-15T03:00:29Z
2023-08-15T01:01:12Z,42.805,6.029,13.3053,4.60162,2470.684,2023-8-15T03:03:32Z
2023-08-15T01:04:15Z,42.805,6.029,13.3059,4.60180,2470.693,2023-8-15T03:06:35Z
2023-08-15T01:07:18Z,42.805,6.029,13.3041,4.60141,2470.693,2023-8-15T03:09:38Z
2023-08-15T01:10:22Z,42.805,6.029,13.3041,4.60149,2470.693,2023-8-15T03:12:41Z
2023-08-15T01:13:25Z,42.805,6.029,13.3046,4.60156,2470.693,2023-8-15T03:15:44Z
2023-08-15T01:16:28Z,42.805,6.029,13.3042,4.60122,2470.693,2023-8-15T03:18:47Z
2023-08-15T01:19:31Z,42.805,6.029,13.3055,4.60142,2470.67,2023-8-15T03:21:50Z
2023-08-15T01:22:34Z,42.805,6.029,13.3046,4.60137,2470.693,2023-8-15T03:24:53Z
2023-08-15T01:25:37Z,42.805,6.029,13.3051,4.60145,2470.67,2023-8-15T03:27:56Z
2023-08-15T01:28:40Z,42.805,6.029,13.3046,4.60144,2470.684,2023-8-15T03:30:59Z
2023-08-15T01:31:43Z,42.805,6.029,13.3048,4.60147,2470.707,2023-8-15T03:34:02Z
2023-08-15T01:34:46Z,42.805,6.029,13.3042,4.60135,2470.646,2023-8-15T03:37:06Z
2023-08-15T01:37:49Z,42.805,6.029,13.3047,4.60139,2470.707,2023-8-15T03:40:09Z
2023-08-15T01:40:52Z,42.805,6.029,13.3047,4.60137,2470.679,2023-8-15T03:43:12Z
2023-08-15T01:43:55Z,42.805,6.029,13.3036,4.60132,2470.67,2023-8-15T03:46:15Z
2023-08-15T01:46:59Z,42.805,6.029,13.3048,4.60137,2470.684,2023-8-15T03:49:18Z
2023-08-15T01:50:02Z,42.805,6.029,13.3054,4.60139,2470.717,2023-8-15T03:52:21Z
2023-08-15T01:53:05Z,42.805,6.029,13.3056,4.60144,2470.67,2023-8-15T03:55:24Z
2023-08-15T01:56:08Z,42.805,6.029,13.3036,4.60132,2470.693,2023-8-15T03:58:27Z
2023-08-15T01:59:11Z,42.805,6.029,13.3044,4.60137,2470.661,2023-8-15T04:01:30Z
2023-08-15T02:02:14Z,42.805,6.029,13.3048,4.60159,2470.67,2023-8-15T04:04:33Z
2023-08-15T02:05:17Z,42.805,6.029,13.3041,4.60143,2470.67,2023-8-15T04:07:36Z
2023-08-15T02:08:20Z,42.805,6.029,13.3039,4.60127,2470.693,2023-8-15T04:10:39Z
2023-08-15T02:11:23Z,42.805,6.029,13.3041,4.60138,2470.67,2023-8-15T04:13:43Z
2023-08-15T02:14:26Z,42.805,6.029,13.3053,4.60155,2470.67,2023-8-15T04:16:46Z
2023-08-15T02:17:29Z,42.805,6.029,13.3041,4.60142,2470.693,2023-8-15T04:19:49Z
2023-08-15T02:20:32Z,42.805,6.029,13.3057,4.60166,2470.646,2023-8-15T04:22:52Z
2023-08-15T02:23:36Z,42.805,6.029,13.3038,4.60154,2470.67,2023-8-15T04:25:55Z
2023-08-15T02:26:39Z,42.805,6.029,13.3043,4.60175,2470.684,2023-8-15T04:28:58Z
2023-08-15T02:29:42Z,42.805,6.029,13.3054,4.60157,2470.684,2023-8-15T04:32:01Z
2023-08-15T02:32:45Z,42.805,6.029,13.3040,4.60139,2470.707,2023-8-15T04:35:04Z
2023-08-15T02:35:48Z,42.805,6.029,13.3049,4.60160,2470.684,2023-8-15T04:38:07Z
2023-08-15T02:38:51Z,42.805,6.029,13.3063,4.60145,2470.707,2023-8-15T04:41:10Z
2023-08-15T02:41:54Z,42.805,6.029,13.3043,4.60152,2470.67,2023-8-15T04:44:13Z
2023-08-15T02:44:57Z,42.805,6.029,13.3035,4.60140,2470.646,2023-8-15T04:47:16Z
2023-08-15T02:48:00Z,42.805,6.029,13.3049,4.60147,2470.707,2023-8-15T04:50:20Z
2023-08-15T02:51:03Z,42.805,6.029,13.3049,4.60168,2470.684,2023-8-15T04:53:23Z
2023-08-15T02:54:06Z,42.805,6.029,13.3051,4.60150,2470.67,2023-8-15T04:56:26Z
2023-08-15T02:57:09Z,42.805,6.029,13.3042,4.60144,2470.693,2023-8-15T04:59:29Z
2023-08-15T03:00:13Z,42.805,6.029,13.3054,4.60134,2470.693,2023-8-15T05:02:32Z
2023-08-15T03:03:16Z,42.805,6.029,13.3043,4.60150,2470.693,2023-8-15T05:05:35Z
2023-08-15T03:06:19Z,42.805,6.029,13.3043,4.60125,2470.693,2023-8-15T05:08:38Z
2023-08-15T03:09:22Z,42.805,6.029,13.3041,4.60141,2470.67,2023-8-15T05:11:41Z
2023-08-15T03:12:25Z,42.805,6.029,13.3045,4.60135,2470.684,2023-8-15T05:14:44Z
2023-08-15T03:15:28Z,42.805,6.029,13.3056,4.60143,2470.693,2023-8-15T05:17:47Z
2023-08-15T03:18:31Z,42.805,6.029,13.3043,4.60147,2470.73,2023-8-15T05:20:50Z
2023-08-15T03:21:34Z,42.805,6.029,13.3043,4.60132,2470.707,2023-8-15T05:23:53Z
2023-08-15T03:24:37Z,42.805,6.029,13.3038,4.60155,2470.661,2023-8-15T05:26:57Z
2023-08-15T03:27:40Z,42.805,6.029,13.3046,4.60149,2470.707,2023-8-15T05:30:00Z
2023-08-15T03:30:43Z,42.805,6.029,13.3042,4.60117,2470.707,2023-8-15T05:33:03Z
2023-08-15T03:33:46Z,42.805,6.029,13.3050,4.60162,2470.693,2023-8-15T05:36:06Z
2023-08-15T03:36:50Z,42.805,6.029,13.3055,4.60140,2470.73,2023-8-15T05:39:09Z
2023-08-15T03:39:53Z,42.805,6.029,13.3045,4.60127,2470.73,2023-8-15T05:42:12Z
2023-08-15T03:42:56Z,42.805,6.029,13.3049,4.60145,2470.73,2023-8-15T05:45:15Z
2023-08-15T03:45:59Z,42.805,6.029,13.3044,4.60141,2470.717,2023-8-15T05:48:18Z
2023-08-15T03:49:02Z,42.805,6.029,13.3037,4.60143,2470.717,2023-8-15T05:51:21Z
2023-08-15T03:52:05Z,42.805,6.029,13.3042,4.60143,2470.693,2023-8-15T05:54:24Z
2023-08-15T03:55:08Z,42.805,6.029,13.3047,4.60158,2470.693,2023-8-15T05:57:27Z
2023-08-15T03:58:11Z,42.805,6.029,13.3065,4.60206,2470.717,2023-8-15T06:00:30Z
2023-08-15T04:01:14Z,42.805,6.029,13.3054,4.60160,2470.679,2023-8-15T06:03:34Z
2023-08-15T04:04:17Z,42.805,6.029,13.3061,4.60162,2470.693,2023-8-15T06:06:37Z
2023-08-15T04:07:20Z,42.805,6.029,13.3039,4.60150,2470.73,2023-8-15T06:09:40Z
2023-08-15T04:10:23Z,42.805,6.029,13.3043,4.60175,2470.717,2023-8-15T06:12:43Z
2023-08-15T04:13:27Z,42.805,6.029,13.3051,4.60180,2470.777,2023-8-15T06:15:46Z
2023-08-15T04:16:30Z,42.805,6.029,13.3048,4.60158,2470.703,2023-8-15T06:18:49Z
2023-08-15T04:19:33Z,42.805,6.029,13.3043,4.60151,2470.763,2023-8-15T06:21:52Z
2023-08-15T04:22:36Z,42.805,6.029,13.3069,4.60137,2470.754,2023-8-15T06:24:55Z
2023-08-15T04:25:39Z,42.805,6.029,13.3046,4.60152,2470.707,2023-8-15T06:27:58Z
2023-08-15T04:28:42Z,42.805,6.029,13.3059,4.60155,2470.717,2023-8-15T06:31:01Z
2023-08-15T04:31:45Z,42.805,6.029,13.3063,4.60170,2470.717,2023-8-15T06:34:04Z
2023-08-15T04:34:48Z,42.805,6.029,13.3054,4.60167,2470.717,2023-8-15T06:37:07Z
2023-08-15T04:37:51Z,42.805,6.029,13.3052,4.60150,2470.717,2023-8-15T06:40:10Z
2023-08-15T04:40:54Z,42.805,6.029,13.3054,4.60190,2470.754,2023-8-15T06:43:14Z
2023-08-15T04:43:57Z,42.805,6.029,13.3067,4.60183,2470.73,2023-8-15T06:46:17Z
2023-08-15T04:47:00Z,42.805,6.029,13.3059,4.60152,2470.693,2023-8-15T06:49:20Z
2023-08-15T04:50:04Z,42.805,6.029,13.3059,4.60186,2470.754,2023-8-15T06:52:23Z
2023-08-15T04:53:07Z,42.805,6.029,13.3064,4.60142,2470.763,2023-8-15T06:55:26Z
2023-08-15T04:56:10Z,42.805,6.029,13.3089,4.60198,2470.754,2023-8-15T06:58:29Z
2023-08-15T04:59:13Z,42.805,6.029,13.3073,4.60155,2470.754,2023-8-15T07:01:32Z
2023-08-15T05:02:16Z,42.805,6.029,13.3054,4.60155,2470.74,2023-8-15T07:04:35Z
2023-08-15T05:05:19Z,42.805,6.029,13.3084,4.60162,2470.763,2023-8-15T07:07:38Z
2023-08-15T05:08:22Z,42.805,6.029,13.3097,4.60170,2470.754,2023-8-15T07:10:41Z
2023-08-15T05:11:25Z,42.805,6.029,13.3093,4.60107,2470.763,2023-8-15T07:13:44Z
2023-08-15T05:14:28Z,42.805,6.029,13.3087,4.60133,2470.787,2023-8-15T07:16:48Z
2023-08-15T05:17:31Z,42.805,6.029,13.3064,4.60164,2470.754,2023-8-15T07:19:51Z
2023-08-15T05:20:34Z,42.805,6.029,13.3078,4.60189,2470.717,2023-8-15T07:22:54Z
2023-08-15T05:23:37Z,42.805,6.029,13.3058,4.60162,2470.74,2023-8-15T07:25:57Z
2023-08-15T05:26:41Z,42.805,6.029,13.3078,4.60161,2470.777,2023-8-15T07:29:00Z
2023-08-15T05:29:44Z,42.805,6.029,13.3092,4.60166,2470.777,2023-8-15T07:32:03Z
2023-08-15T05:32:47Z,42.805,6.029,13.3099,4.60143,2470.74,2023-8-15T07:35:06Z
2023-08-15T05:35:50Z,42.805,6.029,13.3095,4.60117,2470.777,2023-8-15T07:38:09Z
2023-08-15T05:38:53Z,42.805,6.029,13.3069,4.60155,2470.787,2023-8-15T07:41:12Z
2023-08-15T05:41:56Z,42.805,6.029,13.3082,4.60152,2470.8,2023-8-15T07:44:15Z
2023-08-15T05:44:59Z,42.805,6.029,13.3088,4.60135,2470.763,2023-8-15T07:47:18Z
2023-08-15T05:48:02Z,42.805,6.029,13.3073,4.60145,2470.763,2023-8-15T07:50:21Z
2023-08-15T05:51:05Z,42.805,6.029,13.3073,4.60132,2470.777,2023-8-15T07:53:25Z
2023-08-15T05:54:08Z,42.805,6.029,13.3087,4.60130,2470.787,2023-8-15T07:56:28Z
2023-08-15T05:57:11Z,42.805,6.029,13.3092,4.60144,2470.777,2023-8-15T07:59:31Z
2023-08-15T06:00:14Z,42.805,6.029,13.3104,4.60125,2470.787,2023-8-15T08:02:34Z
2023-08-15T06:03:18Z,42.805,6.029,13.3113,4.60146,2470.74,2023-8-15T08:05:37Z
2023-08-15T06:06:21Z,42.805,6.029,13.3103,4.60132,2470.777,2023-8-15T08:08:40Z
2023-08-15T06:09:24Z,42.805,6.029,13.3094,4.60142,2470.777,2023-8-15T08:11:43Z
2023-08-15T06:12:27Z,42.805,6.029,13.3094,4.60117,2470.754,2023-8-15T08:14:46Z
2023-08-15T06:15:30Z,42.805,6.029,13.3110,4.60191,2470.787,2023-8-15T08:17:49Z
2023-08-15T06:18:33Z,42.805,6.029,13.3094,4.60147,2470.754,2023-8-15T08:20:52Z
2023-08-15T06:21:36Z,42.805,6.029,13.3111,4.60150,2470.8,2023-8-15T08:23:55Z
2023-08-15T06:24:39Z,42.805,6.029,13.3114,4.60170,2470.777,2023-8-15T08:26:58Z
2023-08-15T06:27:42Z,42.805,6.029,13.3101,4.60170,2470.777,2023-8-15T08:30:02Z
2023-08-15T06:30:44Z,42.805,6.029,13.3050,4.60174,2470.787,2023-8-15T08:33:03Z
2023-08-15T06:33:47Z,42.805,6.029,13.3076,4.60162,2470.763,2023-8-15T08:36:06Z
2023-08-15T06:36:50Z,42.805,6.029,13.3056,4.60126,2470.763,2023-8-15T08:39:09Z
2023-08-15T06:39:53Z,42.805,6.029,13.3039,4.60179,2470.74,2023-8-15T08:42:12Z
2023-08-15T06:42:56Z,42.805,6.029,13.3031,4.60166,2470.777,2023-8-15T08:45:15Z
2023-08-15T06:45:59Z,42.805,6.029,13.3031,4.60119,2470.763,2023-8-15T08:48:19Z
2023-08-15T06:49:02Z,42.805,6.029,13.3033,4.60122,2470.763,2023-8-15T08:51:22Z
2023-08-15T06:52:05Z,42.805,6.029,13.3033,4.60107,2470.787,2023-8-15T08:54:25Z
2023-08-15T06:55:08Z,42.805,6.029,13.3031,4.60132,2470.787,2023-8-15T08:57:28Z
2023-08-15T06:58:12Z,42.805,6.029,13.3030,4.60155,2470.754,2023-8-15T09:00:31Z
2023-08-15T07:01:15Z,42.805,6.029,13.3028,4.60142,2470.73,2023-8-15T09:03:34Z
2023-08-15T07:04:18Z,42.805,6.029,13.3029,4.60162,2470.763,2023-8-15T09:06:37Z
2023-08-15T07:07:21Z,42.805,6.029,13.3030,4.60119,2470.763,2023-8-15T09:09:40Z
2023-08-15T07:10:24Z,42.805,6.029,13.3032,4.60114,2470.74,2023-8-15T09:12:43Z
2023-08-15T07:13:27Z,42.805,6.029,13.3029,4.60122,2470.74,2023-8-15T09:15:46Z
2023-08-15T07:16:30Z,42.805,6.029,13.3033,4.60114,2470.763,2023-8-15T09:18:49Z
2023-08-15T07:19:33Z,42.805,6.029,13.3029,4.60110,2470.81,2023-8-15T09:21:52Z
2023-08-15T07:22:36Z,42.805,6.029,13.3031,4.60112,2470.74,2023-8-15T09:24:56Z
2023-08-15T07:25:39Z,42.805,6.029,13.3030,4.60111,2470.787,2023-8-15T09:27:59Z
2023-08-15T07:28:42Z,42.805,6.029,13.3029,4.60109,2470.74,2023-8-15T09:31:02Z
2023-08-15T07:31:46Z,42.805,6.029,13.3029,4.60106,2470.74,2023-8-15T09:34:05Z
2023-08-15T07:34:49Z,42.805,6.029,13.3029,4.60102,2470.74,2023-8-15T09:37:08Z
2023-08-15T07:37:52Z,42.805,6.029,13.3033,4.60102,2470.717,2023-8-15T09:40:11Z
2023-08-15T07:40:55Z,42.805,6.029,13.3031,4.60098,2470.74,2023-8-15T09:43:14Z
2023-08-15T07:43:58Z,42.805,6.029,13.3029,4.60109,2470.717,2023-8-15T09:46:17Z
2023-08-15T07:47:01Z,42.805,6.029,13.3029,4.60102,2470.74,2023-8-15T09:49:20Z
2023-08-15T07:50:04Z,42.805,6.029,13.3029,4.60102,2470.717,2023-8-15T09:52:23Z
2023-08-15T07:53:07Z,42.805,6.029,13.3027,4.60097,2470.763,2023-8-15T09:55:26Z
2023-08-15T07:56:10Z,42.805,6.029,13.3027,4.60099,2470.717,2023-8-15T09:58:29Z
2023-08-15T07:59:13Z,42.805,6.029,13.3029,4.60099,2470.754,2023-8-15T10:01:33Z
2023-08-15T08:02:16Z,42.805,6.029,13.3029,4.60102,2470.763,2023-8-15T10:04:36Z
2023-08-15T08:05:19Z,42.805,6.029,13.3029,4.60105,2470.754,2023-8-15T10:07:39Z
2023-08-15T08:08:22Z,42.805,6.029,13.3028,4.60105,2470.717,2023-8-15T10:10:42Z
2023-08-15T08:11:26Z,42.805,6.029,13.3024,4.60099,2470.74,2023-8-15T10:13:45Z
2023-08-15T08:14:29Z,42.805,6.029,13.3027,4.60098,2470.74,2023-8-15T10:16:48Z
2023-08-15T08:17:32Z,42.805,6.029,13.3028,4.60093,2470.754,2023-8-15T10:19:51Z
2023-08-15T08:20:35Z,42.805,6.029,13.3027,4.60092,2470.717,2023-8-15T10:22:54Z
2023-08-15T08:23:38Z,42.805,6.029,13.3027,4.60099,2470.777,2023-8-15T10:25:57Z
2023-08-15T08:26:41Z,42.805,6.029,13.3026,4.60093,2470.726,2023-8-15T10:29:00Z
2023-08-15T08:29:44Z,42.805,6.029,13.3031,4.60092,2470.763,2023-8-15T10:32:03Z
2023-08-15T08:32:47Z,42.805,6.029,13.3029,4.60094,2470.754,2023-8-15T10:35:06Z
2023-08-15T08:35:50Z,42.805,6.029,13.3026,4.60103,2470.707,2023-8-15T10:38:09Z
2023-08-15T08:38:53Z,42.805,6.029,13.3030,4.60096,2470.73,2023-8-15T10:41:12Z
2023-08-15T08:41:56Z,42.805,6.029,13.3030,4.60092,2470.763,2023-8-15T10:44:15Z
2023-08-15T08:44:59Z,42.805,6.029,13.3030,4.60097,2470.717,2023-8-15T10:47:18Z
2023-08-15T08:48:02Z,42.805,6.029,13.3029,4.60090,2470.754,2023-8-15T10:50:21Z
2023-08-15T08:51:05Z,42.805,6.029,13.3031,4.60092,2470.717,2023-8-15T10:53:25Z
2023-08-15T08:54:08Z,42.805,6.029,13.3027,4.60091,2470.717,2023-8-15T10:56:28Z
2023-08-15T08:57:11Z,42.805,6.029,13.3029,4.60091,2470.74,2023-8-15T10:59:31Z
2023-08-15T09:00:15Z,42.805,6.029,13.3031,4.60101,2470.73,2023-8-15T11:02:34Z
2023-08-15T09:03:18Z,42.805,6.029,13.3029,4.60098,2470.693,2023-8-15T11:05:37Z
2023-08-15T09:06:21Z,42.805,6.029,13.3026,4.60091,2470.717,2023-8-15T11:08:40Z
2023-08-15T09:09:24Z,42.805,6.029,13.3029,4.60092,2470.717,2023-8-15T11:11:43Z
2023-08-15T09:12:27Z,42.805,6.029,13.3028,4.60097,2470.73,2023-8-15T11:14:46Z
2023-08-15T09:15:30Z,42.805,6.029,13.3032,4.60091,2470.73,2023-8-15T11:17:49Z
2023-08-15T09:18:33Z,42.805,6.029,13.3032,4.60094,2470.717,2023-8-15T11:20:52Z
2023-08-15T09:21:36Z,42.805,6.029,13.3034,4.60099,2470.717,2023-8-15T11:23:55Z
2023-08-15T09:24:39Z,42.805,6.029,13.3035,4.60109,2470.693,2023-8-15T11:26:59Z
2023-08-15T09:27:42Z,42.805,6.029,13.3032,4.60093,2470.693,2023-8-15T11:30:02Z
2023-08-15T09:30:45Z,42.805,6.029,13.3036,4.60090,2470.717,2023-8-15T11:33:05Z
2023-08-15T09:33:48Z,42.805,6.029,13.3036,4.60090,2470.693,2023-8-15T11:36:08Z
2023-08-15T09:36:52Z,42.805,6.029,13.3036,4.60093,2470.693,2023-8-15T11:39:11Z
2023-08-15T09:39:55Z,42.805,6.029,13.3033,4.60092,2470.717,2023-8-15T11:42:14Z
2023-08-15T09:42:58Z,42.805,6.029,13.3035,4.60097,2470.707,2023-8-15T11:45:17Z
2023-08-15T09:46:01Z,42.805,6.029,13.3032,4.60095,2470.684,2023-8-15T11:48:20Z
2023-08-15T09:49:04Z,42.805,6.029,13.3029,4.60092,2470.693,2023-8-15T11:51:23Z
2023-08-15T09:52:07Z,42.805,6.029,13.3030,4.60091,2470.707,2023-8-15T11:54:26Z
2023-08-15T09:55:10Z,42.805,6.029,13.3031,4.60090,2470.73,2023-8-15T11:57:29Z
2023-08-15T09:58:13Z,42.805,6.029,13.3032,4.60097,2470.693,2023-8-15T12:00:32Z
2023-08-15T10:01:16Z,42.805,6.029,13.3030,4.60090,2470.693,2023-8-15T12:03:36Z
2023-08-15T10:04:19Z,42.805,6.029,13.3030,4.60091,2470.67,2023-8-15T12:06:39Z
2023-08-15T10:07:22Z,42.805,6.029,13.3031,4.60093,2470.67,2023-8-15T12:09:42Z
2023-08-15T10:10:26Z,42.805,6.029,13.3032,4.60091,2470.707,2023-8-15T12:12:45Z
2023-08-15T10:13:29Z,42.805,6.029,13.3028,4.60092,2470.684,2023-8-15T12:15:48Z
2023-08-15T10:16:32Z,42.805,6.029,13.3027,4.60091,2470.661,2023-8-15T12:18:51Z
2023-08-15T10:19:35Z,42.805,6.029,13.3029,4.60088,2470.67,2023-8-15T12:21:54Z
2023-08-15T10:22:38Z,42.805,6.029,13.3029,4.60092,2470.684,2023-8-15T12:24:57Z
2023-08-15T10:25:41Z,42.805,6.029,13.3031,4.60089,2470.646,2023-8-15T12:28:00Z
2023-08-15T10:28:44Z,42.805,6.029,13.3030,4.60094,2470.661,2023-8-15T12:31:03Z
2023-08-15T10:31:45Z,42.805,6.029,13.3031,4.60088,2470.661,2023-8-15T12:34:05Z
2023-08-15T10:34:48Z,42.805,6.029,13.3029,4.60091,2470.684,2023-8-15T12:37:08Z
2023-08-15T10:37:52Z,42.805,6.029,13.3028,4.60089,2470.646,2023-8-15T12:40:11Z
2023-08-15T10:40:55Z,42.805,6.029,13.3029,4.60090,2470.624,2023-8-15T12:43:14Z
2023-08-15T10:43:58Z,42.805,6.029,13.3031,4.60090,2470.646,2023-8-15T12:46:17Z
2023-08-15T10:47:01Z,42.805,6.029,13.3030,4.60090,2470.646,2023-8-15T12:49:20Z
2023-08-15T10:50:04Z,42.805,6.029,13.3031,4.60097,2470.661,2023-8-15T12:52:23Z
2023-08-15T10:53:07Z,42.805,6.029,13.3033,4.60089,2470.624,2023-8-15T12:55:26Z
2023-08-15T10:56:10Z,42.805,6.029,13.3031,4.60097,2470.646,2023-8-15T12:58:29Z
2023-08-15T10:59:13Z,42.805,6.029,13.3029,4.60092,2470.661,2023-8-15T13:01:32Z
2023-08-15T11:02:16Z,42.805,6.029,13.3029,4.60090,2470.624,2023-8-15T13:04:36Z
2023-08-15T11:05:19Z,42.805,6.029,13.3027,4.60092,2470.661,2023-8-15T13:07:39Z
2023-08-15T11:08:22Z,42.805,6.029,13.3029,4.60091,2470.646,2023-8-15T13:10:42Z
2023-08-15T11:11:25Z,42.805,6.029,13.3030,4.60088,2470.646,2023-8-15T13:13:45Z
2023-08-15T11:14:29Z,42.805,6.029,13.3030,4.60091,2470.67,2023-8-15T13:16:48Z
2023-08-15T11:17:32Z,42.805,6.029,13.3026,4.60093,2470.67,2023-8-15T13:19:51Z
2023-08-15T11:20:35Z,42.805,6.029,13.3026,4.60089,2470.67,2023-8-15T13:22:54Z
2023-08-15T11:23:38Z,42.805,6.029,13.3029,4.60089,2470.67,2023-8-15T13:25:57Z
2023-08-15T11:26:41Z,42.805,6.029,13.3031,4.60091,2470.624,2023-8-15T13:29:00Z
2023-08-15T11:29:44Z,42.805,6.029,13.3030,4.60090,2470.637,2023-8-15T13:32:03Z
2023-08-15T11:32:47Z,42.805,6.029,13.3032,4.60092,2470.624,2023-8-15T13:35:06Z
2023-08-15T11:35:50Z,42.805,6.029,13.3031,4.60090,2470.646,2023-8-15T13:38:09Z
2023-08-15T11:38:53Z,42.805,6.029,13.3032,4.60091,2470.646,2023-8-15T13:41:13Z
2023-08-15T11:41:56Z,42.805,6.029,13.3033,4.60089,2470.661,2023-8-15T13:44:16Z
2023-08-15T11:44:59Z,42.805,6.029,13.3032,4.60093,2470.637,2023-8-15T13:47:19Z
2023-08-15T11:48:02Z,42.805,6.029,13.3031,4.60090,2470.624,2023-8-15T13:50:22Z
2023-08-15T11:51:06Z,42.805,6.029,13.3029,4.60089,2470.624,2023-8-15T13:53:25Z
2023-08-15T11:54:09Z,42.805,6.029,13.3030,4.60087,2470.624,2023-8-15T13:56:28Z
2023-08-15T11:57:12Z,42.805,6.029,13.3026,4.60090,2470.624,2023-8-15T13:59:31Z
2023-08-15T12:00:15Z,42.805,6.029,13.3029,4.60092,2470.624,2023-8-15T14:02:34Z
2023-08-15T12:03:18Z,42.805,6.029,13.3031,4.60088,2470.661,2023-8-15T14:05:37Z
2023-08-15T12:06:21Z,42.805,6.029,13.3032,4.60087,2470.637,2023-8-15T14:08:40Z
2023-08-15T12:09:24Z,42.805,6.029,13.3029,4.60090,2470.661,2023-8-15T14:11:43Z
2023-08-15T12:12:27Z,42.805,6.029,13.3029,4.60095,2470.6,2023-8-15T14:14:47Z
2023-08-15T12:15:30Z,42.805,6.029,13.3024,4.60089,2470.624,2023-8-15T14:17:50Z
2023-08-15T12:18:33Z,42.805,6.029,13.3026,4.60089,2470.6,2023-8-15T14:20:53Z
2023-08-15T12:21:36Z,42.805,6.029,13.3029,4.60088,2470.624,2023-8-15T14:23:56Z
2023-08-15T12:24:40Z,42.805,6.029,13.3028,4.60089,2470.6,2023-8-15T14:26:59Z
2023-08-15T12:27:43Z,42.805,6.029,13.3028,4.60088,2470.624,2023-8-15T14:30:02Z
2023-08-15T12:30:46Z,42.805,6.029,13.3033,4.60091,2470.577,2023-8-15T14:33:05Z
2023-08-15T12:33:49Z,42.805,6.029,13.3026,4.60089,2470.624,2023-8-15T14:36:08Z
2023-08-15T12:36:52Z,42.805,6.029,13.3029,4.60089,2470.637,2023-8-15T14:39:11Z
2023-08-15T12:39:55Z,42.805,6.029,13.3030,4.60089,2470.624,2023-8-15T14:42:14Z
2023-08-15T12:42:58Z,42.805,6.029,13.3027,4.60090,2470.6,2023-8-15T14:45:17Z
2023-08-15T12:46:01Z,42.805,6.029,13.3032,4.60091,2470.624,2023-8-15T14:48:20Z
2023-08-15T12:49:04Z,42.805,6.029,13.3026,4.60089,2470.624,2023-8-15T14:51:24Z
2023-08-15T12:52:07Z,42.805,6.029,13.3031,4.60090,2470.614,2023-8-15T14:54:27Z
2023-08-15T12:55:10Z,42.805,6.029,13.3030,4.60089,2470.637,2023-8-15T14:57:30Z
2023-08-15T12:58:13Z,42.805,6.029,13.3029,4.60089,2470.67,2023-8-15T15:00:33Z
2023-08-15T13:01:17Z,42.805,6.029,13.3030,4.60088,2470.637,2023-8-15T15:03:36Z
2023-08-15T13:04:20Z,42.805,6.029,13.3029,4.60090,2470.6,2023-8-15T15:06:39Z
2023-08-15T13:07:23Z,42.805,6.029,13.3026,4.60094,2470.624,2023-8-15T15:09:42Z
2023-08-15T13:10:26Z,42.805,6.029,13.3029,4.60089,2470.6,2023-8-15T15:12:45Z
2023-08-15T13:13:29Z,42.805,6.029,13.3030,4.60089,2470.624,2023-8-15T15:15:48Z
2023-08-15T13:16:32Z,42.805,6.029,13.3030,4.60096,2470.577,2023-8-15T15:18:51Z
2023-08-15T13:19:35Z,42.805,6.029,13.3032,4.60089,2470.624,2023-8-15T15:21:54Z
2023-08-15T13:22:38Z,42.805,6.029,13.3031,4.60089,2470.624,2023-8-15T15:24:58Z
2023-08-15T13:25:41Z,42.805,6.029,13.3033,4.60098,2470.586,2023-8-15T15:28:01Z
2023-08-15T13:28:44Z,42.805,6.029,13.3031,4.60088,2470.614,2023-8-15T15:31:04Z
2023-08-15T13:31:47Z,42.805,6.029,13.3026,4.60090,2470.6,2023-8-15T15:34:07Z
2023-08-15T13:34:51Z,42.805,6.029,13.3026,4.60093,2470.6,2023-8-15T15:37:10Z
2023-08-15T13:37:54Z,42.805,6.029,13.3026,4.60090,2470.6,2023-8-15T15:40:13Z
2023-08-15T13:40:57Z,42.805,6.029,13.3031,4.60092,2470.624,2023-8-15T15:43:16Z
2023-08-15T13:44:00Z,42.805,6.029,13.3031,4.60091,2470.577,2023-8-15T15:46:19Z
2023-08-15T13:47:03Z,42.805,6.029,13.3026,4.60093,2470.637,2023-8-15T15:49:22Z
2023-08-15T13:50:06Z,42.805,6.029,13.3029,4.60092,2470.624,2023-8-15T15:52:25Z
2023-08-15T13:53:09Z,42.805,6.029,13.3030,4.60090,2470.646,2023-8-15T15:55:28Z
2023-08-15T13:56:12Z,42.805,6.029,13.3028,4.60091,2470.646,2023-8-15T15:58:32Z
2023-08-15T13:59:15Z,42.805,6.029,13.3025,4.60089,2470.661,2023-8-15T16:01:35Z
2023-08-15T14:02:18Z,42.805,6.029,13.3030,4.60092,2470.637,2023-8-15T16:04:38Z
2023-08-15T14:05:21Z,42.805,6.029,13.3031,4.60092,2470.624,2023-8-15T16:07:41Z
2023-08-15T14:08:25Z,42.805,6.029,13.3029,4.60093,2470.637,2023-8-15T16:10:44Z
2023-08-15T14:11:28Z,42.805,6.029,13.3031,4.60094,2470.646,2023-8-15T16:13:47Z
2023-08-15T14:14:31Z,42.805,6.029,13.3030,4.60091,2470.67,2023-8-15T16:16:50Z
2023-08-15T14:17:34Z,42.805,6.029,13.3028,4.60092,2470.624,2023-8-15T16:19:53Z
2023-08-15T14:20:37Z,42.805,6.029,13.3029,4.60090,2470.684,2023-8-15T16:22:56Z
2023-08-15T14:23:40Z,42.805,6.029,13.3031,4.60093,2470.637,2023-8-15T16:25:59Z
2023-08-15T14:26:43Z,42.805,6.029,13.3032,4.60090,2470.624,2023-8-15T16:29:02Z
2023-08-15T14:29:46Z,42.805,6.029,13.3029,4.60089,2470.624,2023-8-15T16:32:06Z
2023-08-15T14:32:48Z,42.805,6.029,13.3031,4.60090,2470.646,2023-8-15T16:35:07Z
2023-08-15T14:35:51Z,42.805,6.029,13.3030,4.60090,2470.67,2023-8-15T16:38:10Z
2023-08-15T14:38:54Z,42.805,6.029,13.3029,4.60090,2470.624,2023-8-15T16:41:14Z
2023-08-15T14:41:57Z,42.805,6.029,13.3027,4.60094,2470.637,2023-8-15T16:44:17Z
2023-08-15T14:45:00Z,42.805,6.029,13.3026,4.60090,2470.646,2023-8-15T16:47:20Z
2023-08-15T14:48:03Z,42.805,6.029,13.3030,4.60092,2470.6,2023-8-15T16:50:23Z
2023-08-15T14:51:07Z,42.805,6.029,13.3028,4.60090,2470.661,2023-8-15T16:53:26Z
2023-08-15T14:54:10Z,42.805,6.029,13.3028,4.60091,2470.67,2023-8-15T16:56:29Z
2023-08-15T14:57:13Z,42.805,6.029,13.3031,4.60092,2470.624,2023-8-15T16:59:32Z
2023-08-15T15:00:16Z,42.805,6.029,13.3027,4.60089,2470.661,2023-8-15T17:02:35Z
2023-08-15T15:03:19Z,42.805,6.029,13.3031,4.60090,2470.67,2023-8-15T17:05:38Z
2023-08-15T15:06:22Z,42.805,6.029,13.3032,4.60091,2470.67,2023-8-15T17:08:41Z
2023-08-15T15:09:25Z,42.805,6.029,13.3029,4.60093,2470.646,2023-8-15T17:11:44Z